This is the latest recevied weather packets stored in our database for station/object HB9TJM-8. If no packets are shown the sender has not sent any weather packets the latest 10 day(s).
| Time | Temp. | Humidity | Pressure | Rain* | Wind** | Luminosity | Snow |
|---|---|---|---|---|---|---|---|
| 1777203976 | 16.67° C | 34% | 1020.8 hPa | 0 mm | - | 842 W/m² | - |
| 1777203669 | 16.11° C | 39% | 1020.6 hPa | 0 mm | - | 844 W/m² | - |
| 1777203362 | 16.67° C | 36% | 1020.8 hPa | 0 mm | - | 846 W/m² | - |
| 1777202746 | 16.67° C | 39% | 1020.7 hPa | 0 mm | - | 850 W/m² | - |
| 1777202438 | 16.11° C | 35% | 1020.9 hPa | 0 mm | - | 856 W/m² | - |
| 1777202131 | 16.11° C | 35% | 1020.5 hPa | 0 mm | - | 845 W/m² | - |
| 1777201823 | 16.11° C | 37% | 1020.7 hPa | 0 mm | - | 857 W/m² | - |
| 1777201516 | 15.56° C | 37% | 1020.9 hPa | 0 mm | - | 866 W/m² | - |
| 1777200901 | 15.56° C | 35% | 1020.8 hPa | 0 mm | - | 827 W/m² | - |
| 1777200594 | 15.56° C | 37% | 1020.6 hPa | 0 mm | - | 848 W/m² | - |
| 1777199978 | 15.56° C | 37% | 1021.1 hPa | 0 mm | - | 792 W/m² | - |
| 1777199670 | 15.56° C | 36% | 1021.3 hPa | 0 mm | - | 821 W/m² | - |
| 1777199055 | 15° C | 38% | 1021 hPa | 0 mm | - | 818 W/m² | - |
| 1777198747 | 15° C | 39% | 1020.8 hPa | 0 mm | - | 812 W/m² | - |
| 1777198440 | 15° C | 43% | 1021.1 hPa | 0 mm | - | 792 W/m² | - |
| 1777198132 | 15° C | 41% | 1020.9 hPa | 0 mm | - | 779 W/m² | - |
| 1777197824 | 15° C | 42% | 1021.1 hPa | 0 mm | - | 773 W/m² | - |
| 1777197517 | 15° C | 40% | 1021.2 hPa | 0 mm | - | 753 W/m² | - |
| 1777197209 | 15° C | 44% | 1021 hPa | 0 mm | - | 745 W/m² | - |
| 1777196902 | 14.44° C | 45% | 1021.2 hPa | 0 mm | - | 733 W/m² | - |
| 1777196594 | 13.89° C | 41% | 1020.9 hPa | 0 mm | - | 694 W/m² | - |
| 1777196287 | 15° C | 40% | 1021 hPa | 0 mm | - | 675 W/m² | - |
| 1777195980 | 14.44° C | 45% | 1021.1 hPa | 0 mm | - | 749 W/m² | - |
| 1777194748 | 13.89° C | 46% | 1021.3 hPa | 0 mm | - | 639 W/m² | - |
| 1777194441 | 13.89° C | 45% | 1021.1 hPa | 0 mm | - | 645 W/m² | - |
* Rain latest hour (hover to see other rain measurements)
** Current wind speed in m/s (hover to see current wind gust speed)